Theta_e
320 318 318 322 321 320 321 321 321 322 323 323 323 323 321 324 341 341 340 337 335 332 329 328 327 328 328 330 335 339 340 328 328 328 347 349 347 346 345 345 346 348 348 347
322 320 321 321 321 321 321 321 320 324 321 320 322 321 320 329 339 339 337 334 332 329 328 326 325 326 326 326 329 331 336 341 344 347 352 352 350 349 351 350 350 349 351 348
319 322 322 321 320 322 323 323 323 322 321 318 319 318 319 337 338 337 333 330 329 328 326 323 322 325 324 325 324 326 327 332 336 342 348 351 352 352 352 350 350 351 351 350
322 321 321 320 321 322 322 320 321 322 321 318 318 317 319 336 338 335 332 329 327 326 324 322 321 323 322 321 323 322 324 326 329 336 338 336 336 335 334 337 340 345 346 348
321 323 322 322 323 323 324 320 320 320 318 317 317 316 317 334 337 334 332 329 326 324 324 321 323 324 321 320 319 319 318 320 324 325 326 328 325 326 327 331 333 337 337 339
321 323 323 322 321 321 320 321 321 319 316 317 319 318 319 331 336 333 330 328 327 325 324 324 323 324 323 321 320 319 320 320 319 320 321 322 323 324 324 325 325 329 331 332
323 322 322 322 323 321 321 322 320 319 320 321 322 323 332 332 332 331 329 327 325 324 323 321 320 321 322 322 322 322 322 322 321 319 320 321 322 321 320 324 326 326 325 326
325 324 324 323 322 322 322 321 318 322 324 326 323 337 333 330 330 328 327 325 324 322 321 320 320 320 321 321 319 320 318 318 317 319 317 316 318 321 322 322 322 322 323 325
324 325 323 323 322 321 322 319 320 323 323 322 320 332 329 329 331 329 328 326 324 322 321 320 321 319 319 318 317 316 316 313 311 310 308 310 313 314 315 315 315 317 319 321
323 322 322 322 321 321 319 320 321 320 325 329 324 329 333 330 326 330 330 327 325 323 321 319 319 320 318 318 316 313 312 313 312 311 310 309 309 308 310 312 313 313 312 312
321 322 323 321 322 323 319 320 323 320 323 324 325 324 330 328 326 324 323 328 325 323 321 319 320 321 318 316 315 314 313 311 311 311 312 312 312 313 312 313 314 313 316 315
324 324 327 326 323 322 322 322 322 321 322 324 326 326 324 324 323 322 320 321 326 323 321 320 320 321 319 318 316 315 312 312 312 312 313 313 313 313 313 313 314 314 314 314
322 325 326 326 324 325 326 326 325 322 321 323 324 325 323 324 322 321 320 320 327 325 322 320 321 321 320 319 317 315 313 312 313 313 313 314 313 311 311 311 312 312 314 314
321 322 323 324 324 323 324 323 324 324 324 323 323 322 320 323 320 319 319 317 318 325 324 321 321 322 320 320 318 316 315 315 315 314 313 313 313 312 311 311 311 311 311 312
320 322 324 323 324 323 323 322 320 320 320 321 319 319 317 319 319 320 318 318 319 323 325 323 321 321 320 321 320 317 315 316 315 314 314 314 313 313 312 311 312 312 312 312
322 323 325 326 324 323 324 323 322 319 318 317 316 316 315 316 318 318 318 319 326 327 325 324 323 323 322 320 318 317 316 317 315 315 314 314 314 313 312 311 311 312 312 313
327 325 325 326 325 324 324 322 321 319 318 316 315 314 317 317 320 321 323 324 326 325 325 325 322 319 317 318 321 319 318 316 315 315 315 315 315 314 313 312 311 312 313 312
323 324 324 324 325 326 322 322 320 320 318 318 317 318 317 318 321 321 321 322 321 322 323 324 324 322 322 321 320 319 317 316 315 315 314 313 313 313 312 313 313 311 310 310
321 323 323 321 323 323 323 322 321 320 322 322 321 320 319 317 319 321 321 320 319 318 318 318 317 317 317 316 315 316 315 313 314 313 313 312 312 312 312 311 311 309 309 310
321 321 322 323 324 325 323 320 320 318 322 321 321 320 319 317 318 318 320 320 319 319 317 318 316 315 316 315 315 314 313 312 311 310 309 309 311 310 309 310 310 309 309 311
320 321 320 320 319 321 323 322 319 322 324 321 319 318 317 317 317 317 318 316 316 315 315 314 314 313 311 311 311 310 310 310 309 308 308 307 307 308 310 310 310 310 309 309
324 323 322 322 322 324 322 322 325 322 319 320 318 314 315 315 316 316 318 316 316 316 315 314 314 313 312 311 310 309 309 308 307 306 306 306 305 305 306 308 308 309 309 307
321 324 323 321 323 320 319 319 320 317 318 316 314 313 313 314 314 317 316 314 313 313 311 312 313 312 311 308 307 306 305 306 305 305 304 307 307 307 307 307 307 307 306 306
321 319 320 319 321 318 318 318 315 313 313 312 312 312 314 314 314 314 314 313 313 312 311 310 308 307 307 306 305 305 305 304 306 306 306 305 305 305 305 306 306 306 305 305
316 318 318 318 318 317 315 315 314 313 312 312 312 313 314 314 313 311 311 312 312 311 309 308 308 306 305 304 304 304 304 305 305 304 305 303 302 304 305 305 305 305 305 305
315 317 316 317 315 314 315 313 313 312 313 313 312 312 314 313 311 311 311 311 308 307 307 305 305 304 304 304 304 305 305 305 304 304 304 302 303 303 304 304 304 303 304 304
Wind_Speed
7 3 5 6 3 6 5 6 7 3 6 5 4 4 11 0 16 16 16 16 15 16 17 26 30 32 33 34 32 31 24 9 25 27 38 26 24 30 30 28 30 29 22 34
0 1 3 4 3 2 5 6 8 4 10 7 5 7 9 8 12 15 17 15 14 13 17 24 30 32 29 27 28 28 26 14 5 8 24 19 21 24 27 27 28 31 26 25
7 5 4 3 5 6 4 7 7 4 7 8 5 8 8 13 19 19 18 16 15 13 13 12 21 24 24 26 28 28 26 23 21 12 7 7 10 17 20 15 19 25 34 35
2 6 5 3 3 4 4 9 10 10 8 2 6 6 4 15 16 18 16 14 11 10 10 9 14 16 22 26 24 26 27 28 27 25 22 22 20 18 21 21 21 18 13 13
7 2 3 1 7 7 3 8 7 5 7 5 11 2 6 18 13 14 15 13 12 9 8 6 8 14 14 21 25 25 26 28 28 29 28 27 29 27 26 29 30 27 29 11
7 2 3 2 6 3 5 4 7 6 3 2 20 8 5 6 16 12 14 12 11 9 7 8 9 12 17 17 18 24 27 30 29 26 26 26 25 29 31 34 32 29 30 25
5 9 4 8 1 6 4 5 4 5 3 7 10 3 4 11 15 18 14 11 8 8 7 6 6 8 10 15 21 16 19 21 24 26 27 26 23 26 25 26 26 28 27 25
3 4 3 2 4 2 4 2 4 3 3 6 9 4 3 15 16 15 14 11 9 8 7 8 8 9 6 10 12 14 17 18 20 20 21 22 23 24 25 24 23 21 21 20
4 2 1 5 6 5 3 3 3 0 4 2 3 4 5 13 13 14 14 12 9 9 8 9 13 14 8 8 9 10 12 15 18 19 18 18 18 20 21 22 23 23 22 20
4 4 3 2 3 6 6 2 4 3 2 3 3 1 5 8 7 14 12 12 10 9 9 7 11 12 11 11 9 7 9 10 12 14 17 19 20 20 20 21 24 24 22 21
3 2 6 8 2 3 4 1 2 2 2 2 1 5 5 8 6 7 5 14 15 14 11 8 14 16 14 12 7 7 5 6 10 11 13 16 18 19 19 19 20 22 22 22
2 3 2 6 13 5 5 3 3 4 5 2 2 5 6 9 9 8 8 6 14 12 9 10 17 17 17 12 12 5 7 5 4 7 9 12 15 18 19 21 22 22 20 22
3 3 2 7 4 5 3 4 4 2 3 3 2 5 5 5 5 5 5 4 11 10 11 10 14 16 20 16 13 10 8 4 2 6 9 12 15 18 18 18 19 20 20 22
6 2 3 4 6 4 5 9 6 6 3 5 7 8 6 4 2 7 6 5 6 11 12 11 9 14 21 18 16 13 11 8 3 4 6 9 11 12 14 15 18 20 21 20
5 3 3 6 8 11 11 11 12 8 7 5 6 7 7 4 7 4 4 7 8 10 8 12 10 9 16 13 16 17 16 16 11 8 9 11 13 12 12 12 14 17 20 20
5 4 4 4 8 11 15 15 15 5 6 6 8 7 7 5 8 8 8 9 11 11 11 12 10 13 14 16 17 18 20 19 15 10 13 15 17 15 12 11 13 17 20 16
6 3 1 4 6 10 9 7 6 2 3 4 4 6 6 9 13 12 12 11 8 6 7 8 11 18 22 20 19 18 13 2 8 11 15 18 18 16 10 7 11 14 14 15
3 0 1 3 3 4 8 8 4 4 6 7 6 12 10 10 11 11 10 9 9 6 3 5 8 10 9 8 12 7 5 6 7 10 9 12 15 8 10 8 7 12 17 21
8 5 2 3 4 9 15 4 3 4 5 11 8 13 12 11 9 7 8 7 8 8 12 17 17 18 18 15 12 8 6 9 11 12 14 16 15 13 10 10 13 18 23 23
6 5 4 1 0 3 1 8 7 5 2 7 8 8 9 9 5 4 4 6 7 13 13 12 11 9 9 6 6 11 11 12 13 14 16 17 19 17 15 15 13 18 21 21
3 1 5 3 4 6 7 8 4 2 3 3 3 4 4 3 3 2 8 10 16 14 18 21 18 15 16 14 12 12 12 12 13 14 15 18 19 20 18 14 16 18 20 20
6 6 4 4 3 6 6 5 4 4 4 3 6 8 6 6 5 5 9 8 11 11 10 9 6 5 7 4 4 5 12 12 11 12 14 17 23 24 19 17 16 16 17 17
3 4 4 6 4 5 4 5 5 5 1 4 4 5 7 8 7 7 7 8 9 10 7 4 3 11 4 14 14 13 12 12 13 14 17 16 18 20 19 17 17 15 10 9
4 5 3 4 2 5 6 6 6 8 6 6 5 6 7 6 7 8 6 7 8 5 4 6 11 13 13 12 12 12 11 12 12 11 13 16 17 18 18 15 12 12 7 13
3 4 5 4 0 5 7 6 6 6 4 2 6 8 8 9 7 6 3 3 6 6 6 11 10 11 12 14 13 12 10 10 12 12 13 15 18 19 13 14 11 9 13 14
3 2 2 2 2 4 1 4 4 4 3 7 7 6 9 9 6 6 5 1 13 11 13 13 11 9 6 9 10 8 8 8 8 12 12 15 14 15 16 14 16 13 12 13
Wind_Direction
225 139 224 230 60 5 326 343 338 83 142 116 131 275 289 192 103 93 84 73 61 48 32 26 23 35 31 30 27 26 52 61 173 241 260 233 242 245 248 251 244 249 248 225
296 247 43 23 95 344 345 324 305 7 20 56 16 291 284 75 98 92 88 77 67 46 36 23 18 28 35 32 31 32 34 40 34 268 253 252 246 241 247 249 248 251 255 237
203 155 127 64 336 318 4 36 8 17 4 347 352 292 258 100 101 94 83 80 68 60 50 27 18 26 34 33 34 32 38 40 37 30 352 300 272 272 296 299 309 268 251 245
91 116 54 9 300 16 74 12 9 358 12 287 60 287 332 133 113 98 93 86 79 70 58 42 16 29 42 42 39 40 36 41 45 40 43 46 36 23 9 23 15 336 309 269
248 54 158 266 64 41 318 31 341 310 296 328 276 285 282 135 112 101 99 101 102 87 93 74 26 19 48 44 44 46 46 41 37 43 46 45 42 37 34 31 32 30 39 328
264 167 137 91 39 345 282 308 297 275 193 292 261 179 308 172 131 110 104 105 112 118 113 119 79 37 37 43 46 55 55 53 50 47 44 41 34 38 37 36 36 32 36 45
310 235 123 89 349 17 45 24 342 348 7 234 330 307 152 89 115 118 116 112 109 109 104 91 77 72 38 41 40 45 48 48 48 50 48 46 39 35 40 39 37 38 32 26
336 343 3 135 84 60 324 174 151 263 324 309 329 101 154 104 109 113 122 122 124 129 143 148 153 122 78 52 42 49 51 49 49 51 44 42 41 38 34 36 38 38 34 30
23 100 63 88 69 85 338 343 193 250 277 326 230 68 79 125 130 130 136 141 151 157 182 175 151 127 126 92 67 57 51 50 49 49 45 41 35 32 28 25 26 26 25 23
21 338 340 164 166 240 171 216 16 350 222 280 315 354 180 151 132 154 152 156 165 175 180 161 146 158 154 136 113 79 71 56 54 50 48 45 41 37 34 31 26 23 18 10
70 107 298 357 229 299 39 351 21 131 122 181 298 292 122 125 131 133 161 171 175 182 183 168 179 174 136 134 131 127 94 80 70 50 36 30 26 26 25 24 21 14 10 13
55 108 313 276 288 357 74 38 108 122 287 325 166 268 145 157 168 177 219 207 186 182 171 175 183 166 148 165 159 179 152 133 65 37 26 25 21 16 13 10 9 10 9 3
338 5 323 306 19 47 74 319 327 203 133 225 164 262 250 121 82 351 302 84 177 175 181 172 180 166 167 162 170 175 180 198 14 354 360 1 3 4 4 5 1 359 356 359
91 130 170 217 268 305 317 309 248 222 195 231 225 256 291 258 40 256 246 145 135 183 192 180 176 172 164 172 176 180 199 220 245 291 309 304 322 338 349 355 351 353 354 354
114 182 254 277 304 306 300 287 287 277 258 251 252 270 273 259 223 214 116 73 58 53 43 186 170 136 135 156 196 198 217 221 217 231 278 284 291 294 315 328 324 336 339 342
166 207 223 276 306 303 291 295 284 258 286 316 327 329 282 326 75 67 63 51 75 71 73 81 82 94 131 196 207 212 227 242 208 245 256 278 277 272 291 299 309 324 331 330
150 163 54 259 308 315 307 258 322 72 44 20 340 272 337 44 56 48 61 62 79 86 106 135 152 160 201 215 201 235 229 210 217 244 265 275 290 258 273 285 317 334 353 340
190 97 175 254 315 264 243 334 32 314 72 15 359 35 46 77 75 59 49 76 58 67 62 100 161 178 206 132 160 165 86 52 354 336 359 27 34 5 345 339 359 339 335 328
181 170 200 168 216 267 302 26 68 85 42 35 39 35 27 9 83 48 67 82 95 74 55 66 73 69 74 68 70 67 51 17 26 24 18 6 0 0 2 350 340 333 331 329
102 115 132 272 125 256 300 44 24 71 146 26 32 40 34 28 32 322 114 70 62 60 43 69 81 78 83 62 29 20 26 37 24 23 13 8 9 356 345 336 334 325 323 323
143 142 181 212 213 271 355 359 131 318 213 6 21 342 58 40 195 170 108 86 80 76 64 68 59 31 57 58 46 37 21 14 357 3 9 4 357 354 347 335 325 321 322 323
171 155 211 196 199 261 4 50 53 188 332 341 28 28 21 7 351 352 104 106 90 71 58 46 33 355 332 359 24 37 23 13 18 11 354 338 333 333 325 330 324 322 322 329
65 133 189 164 212 198 171 190 190 166 182 46 43 12 29 27 42 68 101 85 75 86 82 94 241 299 49 74 80 61 37 23 2 352 347 346 342 334 332 328 326 322 330 339
358 50 92 69 2 35 36 51 76 72 60 24 13 59 68 53 72 82 91 86 83 18 271 215 83 62 39 42 35 32 11 353 358 9 357 358 358 351 354 355 2 349 16 7
230 111 202 219 261 50 32 42 53 65 68 330 73 64 84 93 83 97 104 165 156 166 68 65 61 56 24 356 359 353 2 11 7 1 5 2 352 353 353 4 2 10 350 349
315 294 126 193 127 137 11 342 356 342 356 84 86 62 95 108 133 144 198 129 66 75 58 51 38 18 16 357 340 357 9 9 19 12 1 350 352 350 355 359 353 357 352 7